GFSWCAN_con_mlcape_273.txt.gz
CAPE
0 0 0 0 0 0 0 0 0 0 4 5 4 3 0 1 11 3 1 1 20 7 0 0 0 0 0 0 1 0 89 95 510 553 181 8 16 22 5 20 0 10 193 297 0 0 131 251 277 211 289 467 2055 2161
0 0 0 0 0 0 0 0 0 0 2 4 5 3 0 4 8 5 1 4 5 8 0 0 0 0 0 0 0 0 0 0 333 319 10 0 0 0 0 13 0 294 141 199 373 363 121 215 330 173 87 118 0 2226
0 0 0 0 0 0 0 2 0 0 0 3 4 3 0 1 4 4 5 0 2 6 0 0 0 0 0 0 0 0 0 7 19 86 9 0 0 0 0 0 2 4 23 257 138 158 173 41 73 165 97 0 0 1016
0 0 0 0 0 0 0 3 3 0 0 2 5 3 0 1 1 7 3 1 0 0 1 0 0 0 0 0 0 0 0 0 0 0 16 36 45 0 0 0 0 0 9 130 174 71 26 74 130 229 430 215 64 1913
0 0 0 0 1 0 0 4 4 0 0 5 5 4 0 0 6 3 5 0 0 0 0 0 0 0 0 0 0 0 0 0 0 0 9 147 396 63 0 16 0 0 1 69 111 2 60 283 342 145 15 831 1765 1690
1 0 0 0 2 0 2 1 3 0 6 9 4 3 0 2 3 1 3 0 0 0 0 0 0 0 0 0 0 0 0 0 0 0 0 42 175 294 101 144 0 0 73 100 114 0 0 12 220 177 245 1452 1353 1219
1 0 0 0 0 0 1 5 1 0 6 5 2 0 0 6 3 1 1 0 0 0 0 1 0 0 0 0 0 0 0 0 0 0 0 0 17 350 481 327 199 7 0 269 139 45 13 3 30 568 754 1273 1293 938
1 0 1 2 0 0 0 7 0 1 3 0 0 0 1 0 0 1 0 0 0 0 2 3 0 0 2 0 0 0 0 0 0 0 0 1 59 284 321 232 39 51 95 53 222 349 153 189 512 398 1060 1112 1278 1052
0 0 0 0 0 0 0 4 0 0 0 0 0 1 0 0 1 1 0 0 0 0 0 5 0 0 1 1 13 7 0 0 0 0 0 80 115 263 256 52 49 60 14 0 0 285 328 54 4 438 1061 1014 752 1105
0 0 4 0 0 0 0 1 0 0 0 0 1 2 1 0 0 0 0 0 1 0 1 2 0 0 0 5 29 40 17 0 7 0 18 13 20 150 229 128 8 0 0 248 302 282 278 343 132 856 817 228 125 813
0 0 0 0 0 0 2 0 0 0 2 2 2 1 1 1 0 1 1 1 2 2 2 0 0 0 0 1 12 32 56 14 0 0 0 113 155 103 130 32 0 95 206 338 312 263 182 464 668 585 129 33 0 0
0 0 0 0 0 0 2 0 3 1 1 0 1 0 0 1 1 2 0 1 0 0 0 0 0 0 0 8 15 23 69 71 26 44 68 58 273 599 119 91 3 0 7 260 270 277 617 627 630 244 25 4 3 197
0 0 0 0 0 0 2 2 1 0 5 0 2 0 0 0 1 1 1 4 1 0 6 23 15 39 27 44 0 8 59 83 50 173 162 361 729 1026 358 293 290 392 450 342 112 981 948 986 1115 715 329 169 1106 1131
0 1 0 0 0 0 1 0 0 1 1 2 9 0 0 0 0 0 0 5 4 1 11 6 3 53 65 27 23 0 2 1 3 22 77 24 233 223 815 656 467 349 361 369 1016 1000 935 869 901 924 871 787 588 414
0 0 0 0 0 0 1 0 1 1 2 3 5 1 0 0 4 11 12 15 8 13 3 0 3 17 50 61 66 1 0 0 35 7 61 238 181 911 857 988 820 777 852 1052 1012 928 808 704 679 520 419 326 187 101
0 0 0 0 0 0 0 2 1 0 1 0 0 1 5 18 29 33 15 6 4 2 0 0 2 19 29 36 22 0 0 0 2 142 18 215 548 1176 1074 965 895 1012 975 877 762 733 731 638 435 264 137 89 40 0
0 0 1 0 0 0 0 1 0 0 0 0 1 0 0 16 17 1 0 0 0 0 0 2 13 13 32 24 2 25 5 7 33 157 97 0 628 862 1031 1122 1178 1080 979 938 791 611 493 405 310 201 148 78 19 0
0 11 0 0 2 3 1 0 1 0 0 0 0 0 20 7 0 0 1 4 1 4 5 1 0 21 6 20 0 31 5 0 0 0 7 523 1320 1162 1016 971 922 889 831 721 502 271 130 51 4 0 0 0 0 0
0 8 0 1 0 0 1 0 2 3 0 0 0 1 2 5 6 14 7 12 16 14 18 13 0 5 2 69 221 64 88 0 0 13 0 1064 1215 1214 1047 901 881 681 252 85 8 0 0 0 0 0 0 0 0 0
0 1 0 0 2 8 0 1 0 0 0 20 11 14 8 10 5 3 0 0 1 7 3 8 0 10 24 0 57 145 258 120 325 146 335 796 1051 990 883 809 663 293 45 0 0 0 0 3 0 0 0 0 0 0
0 4 4 4 4 1 2 0 0 0 7 14 22 18 24 3 1 0 2 0 5 12 2 1 7 0 7 0 0 11 1 51 13 5 106 238 439 339 440 531 292 174 30 10 43 1 4 12 7 0 0 0 0 0
4 3 2 1 2 3 1 0 0 3 10 23 20 9 3 0 0 1 1 12 2 0 1 0 0 0 0 3 18 13 136 200 254 209 179 29 90 178 331 367 355 230 101 26 20 10 11 16 5 2 0 0 0 0
4 7 1 1 1 4 0 1 8 27 16 23 24 1 1 0 0 0 0 0 1 9 5 0 0 0 1 69 103 488 384 247 45 38 13 41 206 195 106 115 154 130 57 19 18 18 31 10 7 11 3 2 2 15
3 0 0 2 2 11 0 3 16 10 19 24 16 0 0 0 0 0 0 7 8 8 0 0 0 27 30 91 162 132 93 72 94 81 108 115 96 70 41 87 153 103 51 19 23 21 35 27 22 21 31 27 26 14
2 4 2 1 0 5 0 0 15 9 1 0 4 0 0 0 0 0 2 25 14 19 7 73 57 38 63 125 98 56 19 22 33 19 10 46 22 21 26 26 51 63 56 35 37 22 25 41 30 5 0 14 36 16
2 8 5 1 0 5 4 2 6 6 5 1 0 7 0 0 0 3 10 28 54 53 101 118 81 41 44 73 27 45 50 30 16 5 2 13 31 14 35 27 39 93 30 20 11 14 75 28 40 72 51 41 32 22
1 17 15 2 20 14 29 21 15 5 1 4 7 11 5 14 13 5 31 42 53 35 88 57 33 21 26 20 27 27 28 9 17 1 2 2 5 29 29 10 31 32 56 66 51 56 59 17 6 29 49 63 13 10
5 13 13 16 15 16 15 17 10 2 2 4 13 5 13 19 2 1 15 2 0 20 46 66 38 27 16 72 25 0 2 10 11 0 6 9 1 17 46 17 1 0 1 7 26 48 63 55 48 66 54 57 37 40
12 10 18 7 25 36 25 15 6 7 18 8 5 6 6 18 20 28 33 19 30 24 34 36 53 43 24 29 50 48 58 41 19 9 11 3 2 12 16 33 12 7 0 0 0 0 0 4 24 29 55 45 46 48
20 10 12 10 7 2 9 4 12 1 16 0 5 22 38 13 70 41 49 52 27 22 10 23 14 11 9 19 18 30 9 1 1 12 7 20 22 30 24 15 8 4 20 29 19 0 0 0 0 0 0 14 19 25
1 1 4 3 9 11 20 24 11 3 0 1 5 5 16 64 80 76 111 95 79 60 73 58 42 10 13 20 27 33 17 2 2 6 23 30 17 8 23 26 17 21 15 55 61 33 2 0 0 6 60 52 58 66
0 0 2 3 0 2 0 0 5 8 54 29 50 79 60 43 31 42 69 61 27 0 0 75 189 44 16 24 18 9 16 12 15 9 15 90 59 15 32 30 2 5 22 11 32 63 26 5 5 12 16 20 12 23
0 0 5 9 5 12 13 21 33 34 54 54 101 53 69 76 28 55 35 56 43 19 63 94 134 114 103 138 101 59 27 41 27 4 0 5 0 0 8 13 3 4 13 2 9 27 57 34 39 36 27 30 37 46

GFSWCAN_con_mlcape_276.txt.gz
CAPE
1 0 0 0 0 0 0 0 0 0 0 1 3 4 2 0 7 9 0 0 14 7 0 0 0 0 0 0 0 0 41 45 169 276 111 26 48 0 0 0 0 0 10 14 104 0 0 147 237 214 643 968 1075 640
1 0 0 0 0 0 0 0 0 0 0 0 4 4 2 1 7 26 0 0 2 3 0 0 0 0 0 0 0 0 0 0 12 37 12 1 0 0 0 0 0 50 5 27 109 128 24 144 383 442 851 989 633 344
2 0 0 0 0 0 0 0 0 0 0 0 2 4 2 2 5 23 4 0 1 7 0 0 0 0 0 0 0 0 0 0 4 2 9 0 0 0 0 0 0 3 33 90 121 79 15 171 135 133 312 370 153 116
2 1 0 0 0 0 0 0 2 3 0 0 5 3 2 2 4 12 14 6 4 5 1 0 0 0 0 0 0 0 0 0 0 0 0 0 0 0 0 0 0 1 6 4 57 92 7 13 64 71 7 27 219 261
2 0 0 0 0 2 0 0 5 3 0 0 0 3 3 0 0 9 8 5 0 0 0 0 0 0 0 0 0 0 0 0 0 0 0 0 44 0 4 5 0 0 2 7 13 0 2 30 129 135 237 426 97 995
2 1 0 0 0 0 0 0 4 3 0 0 7 3 2 0 14 3 2 0 0 0 1 0 0 0 0 0 0 0 0 0 0 0 0 0 97 167 98 24 40 0 0 0 0 0 0 0 0 7 174 240 460 1415
2 1 0 0 0 0 0 0 5 0 1 5 4 2 0 0 12 4 1 0 0 0 1 2 0 0 0 0 0 0 0 0 0 0 0 0 0 52 0 3 0 25 1 0 26 23 0 0 0 15 11 226 410 1445
2 0 1 0 0 0 0 0 6 0 2 3 0 0 0 3 0 1 0 0 0 0 1 2 0 0 0 0 0 0 0 0 0 0 0 0 0 11 54 109 16 0 0 0 4 105 32 2 89 37 501 222 550 844
0 4 3 0 0 0 0 2 1 0 2 0 0 0 4 7 1 0 0 0 0 0 1 2 0 0 0 0 0 4 0 0 0 0 0 0 0 2 122 158 191 17 18 5 4 1 60 92 1 121 882 860 806 458
2 2 0 0 0 0 1 6 0 0 0 0 0 1 10 2 0 0 0 1 1 1 1 1 0 0 0 0 8 26 16 5 0 0 0 0 0 0 32 157 100 38 5 0 0 53 197 83 0 81 620 830 521 308
3 0 0 0 0 0 0 2 0 1 3 2 5 2 1 0 0 2 2 1 1 2 0 0 0 0 0 0 7 17 25 12 2 0 0 0 0 0 0 0 50 30 1 150 178 134 61 50 0 24 211 95 79 27
0 0 0 0 0 0 2 0 0 0 0 0 1 0 0 1 1 1 1 0 0 0 0 0 1 0 0 0 6 5 20 42 17 3 2 0 52 622 143 60 163 13 49 49 200 194 465 360 89 13 0 0 0 0
0 0 0 0 0 0 2 0 0 0 0 1 2 0 1 1 0 2 5 4 1 0 4 34 19 49 10 29 5 1 3 0 0 45 60 159 299 280 283 106 90 4 0 262 863 606 242 191 74 47 13 44 75 0
0 0 0 0 0 0 4 0 0 1 1 1 7 0 0 0 0 0 0 0 0 3 12 2 1 18 34 35 2 0 0 0 0 1 44 230 308 290 262 226 159 18 211 761 872 850 565 274 106 480 595 287 9 33
0 0 0 0 0 0 4 1 0 2 2 1 7 1 0 0 0 0 0 3 12 5 0 0 0 13 12 34 51 11 2 0 2 1 93 8 29 0 1 463 635 721 700 786 773 829 852 775 748 648 526 407 260 173
0 0 0 0 0 2 0 2 2 0 1 1 5 1 2 3 18 32 24 25 0 1 0 0 0 14 11 38 26 6 0 0 0 27 82 140 54 0 29 710 859 778 643 576 500 393 428 365 375 269 106 52 12 0
0 0 0 0 0 1 3 0 0 0 0 1 1 0 0 0 3 9 6 0 2 0 0 2 4 1 10 27 19 16 0 18 0 0 0 5 84 220 666 605 559 510 452 394 274 142 61 13 1 0 0 0 0 0
0 3 0 0 2 2 1 0 0 0 0 0 0 0 0 16 15 10 1 0 0 5 11 1 5 3 25 28 33 14 4 0 0 0 0 0 34 354 544 695 580 443 318 198 132 55 7 0 0 0 0 0 0 0
0 0 0 0 0 0 0 0 1 0 0 0 0 0 0 0 7 4 2 7 10 21 18 10 6 0 5 11 14 9 3 0 0 0 0 27 157 395 464 443 333 280 184 93 29 0 0 0 0 0 0 0 0 0
0 1 0 0 2 5 0 3 0 0 0 2 3 1 4 6 8 5 3 2 2 9 24 1 4 9 0 0 0 2 33 0 1 1 29 134 316 451 374 291 122 48 12 0 0 0 0 0 0 0 0 0 0 0
0 6 5 3 3 2 7 0 0 0 0 0 14 17 18 2 5 0 0 0 3 12 10 5 14 10 1 14 0 0 0 13 27 0 0 116 55 254 277 90 41 2 0 0 0 0 0 0 0 0 0 0 0 0
3 5 1 1 1 13 1 0 0 0 0 6 20 16 4 4 0 0 0 3 12 5 1 0 1 0 0 0 0 2 2 3 3 0 0 51 61 127 134 133 59 0 0 1 2 0 0 0 0 0 0 0 0 0
0 7 1 0 1 3 1 1 0 3 10 21 19 3 3 0 0 1 1 0 0 0 0 0 0 0 3 0 6 40 63 33 36 24 33 34 60 27 77 127 105 81 48 9 10 0 1 0 0 0 0 0 0 0
5 5 4 5 0 0 1 0 8 12 11 18 15 0 0 0 0 0 0 0 5 1 8 17 16 3 0 1 10 36 52 47 43 56 34 37 1 18 70 57 121 50 33 50 29 10 13 0 0 0 0 1 8 13
0 3 6 5 12 2 0 0 5 3 0 0 2 0 0 0 0 0 7 10 18 14 27 20 29 23 26 32 8 24 26 10 16 28 32 64 20 42 56 45 26 88 52 29 36 23 35 38 12 17 14 10 13 9
0 0 0 0 0 1 2 1 2 8 4 2 0 3 0 0 0 2 14 37 36 47 52 89 46 25 39 30 32 21 11 3 3 10 9 5 6 6 9 18 25 97 38 50 60 29 66 62 47 26 8 3 1 19
4 10 1 9 2 1 3 13 10 1 1 3 1 2 0 2 6 11 22 33 19 45 65 32 13 12 12 8 16 18 13 13 10 12 2 0 0 2 18 24 30 41 24 15 26 22 33 64 78 45 45 41 27 15
5 3 7 8 6 1 1 6 3 0 1 1 2 7 13 7 4 16 15 12 8 19 28 66 37 25 24 40 6 0 1 3 12 9 8 1 10 21 18 21 5 2 1 2 47 62 44 56 37 39 53 31 33 39
0 0 0 0 8 28 17 17 6 2 15 11 6 6 8 4 37 31 28 32 6 2 5 11 26 24 8 16 26 27 23 12 8 10 12 10 18 17 14 13 9 3 1 0 0 5 32 35 33 47 48 39 28 34
0 0 3 8 14 3 11 0 9 16 13 1 0 7 12 30 47 53 29 25 35 50 35 29 4 0 11 18 3 4 3 0 7 7 14 17 21 14 0 4 9 0 1 14 2 18 16 1 0 0 0 0 4 21
0 0 4 6 12 18 17 4 2 0 3 0 2 6 20 41 41 27 26 2 0 3 52 62 65 24 20 45 56 21 6 3 0 1 7 4 26 26 14 11 12 3 0 15 53 37 37 9 0 2 0 0 0 6
0 0 4 3 2 3 4 0 0 16 26 4 7 7 26 22 25 14 11 36 23 24 35 47 70 73 23 35 17 13 4 31 8 0 11 57 56 33 33 14 14 4 3 2 0 7 19 27 10 3 6 17 20 32
0 1 3 1 5 6 6 14 13 18 6 1 5 23 15 26 11 13 6 17 0 0 7 28 0 0 14 1 0 10 5 13 0 0 8 0 3 0 0 0 0 1 2 0 0 0 5 2 3 16 12 19 26 33

GFSWCAN_con_mlcape_279.txt.gz
CAPE
0 1 2 0 0 0 0 0 0 0 0 0 0 5 2 1 0 6 0 0 11 6 0 0 0 0 0 0 0 0 0 17 135 153 237 131 106 87 74 23 3 0 0 1 24 0 3 6 214 128 169 613 425 325
0 1 2 0 0 0 0 0 0 0 0 0 4 5 3 1 1 29 1 0 1 4 0 0 0 0 0 0 0 0 0 0 25 43 57 47 23 2 0 0 0 0 2 25 27 58 34 94 159 159 493 619 198 116
0 1 2 0 0 0 0 0 0 0 0 0 0 5 3 1 0 21 3 0 2 8 0 0 0 0 0 0 0 0 0 0 16 1 0 0 0 0 0 0 0 0 0 7 21 46 47 188 106 415 639 722 327 100
0 2 3 0 0 0 0 0 0 0 1 0 0 6 3 2 1 11 13 10 4 8 1 0 0 0 0 0 0 0 0 0 0 0 0 0 0 0 0 0 0 0 0 0 6 30 45 160 101 135 350 330 407 119
1 2 2 0 0 0 0 0 0 1 1 0 0 5 3 1 2 1 5 8 4 6 1 0 0 0 0 0 0 0 0 0 0 0 0 0 0 0 0 0 0 0 0 5 5 1 0 3 30 63 170 175 320 45
1 2 2 0 0 0 0 0 0 2 2 0 0 8 3 0 0 11 5 2 0 0 5 0 0 0 0 0 0 0 0 0 0 0 0 0 0 4 1 1 0 0 0 0 10 8 2 0 0 0 0 42 48 84
2 2 2 0 3 0 0 0 1 3 0 0 7 5 4 0 9 8 0 0 0 0 1 1 0 0 0 0 0 0 0 0 0 0 0 0 0 0 0 0 5 1 8 0 2 0 1 0 0 8 21 6 36 89
2 1 2 1 0 0 0 0 0 1 0 4 3 2 0 0 3 0 0 0 0 0 1 3 0 0 0 0 0 0 0 0 0 0 0 0 0 0 0 0 0 0 0 0 7 0 4 0 0 26 119 497 93 173
1 2 1 2 0 0 0 0 8 0 4 0 0 0 8 9 7 0 0 0 0 0 1 2 0 0 0 0 0 2 0 3 0 0 0 0 0 0 0 0 0 7 0 0 0 0 0 0 0 41 468 406 302 446
2 1 2 0 0 0 0 1 1 0 0 0 3 1 7 4 0 0 1 1 1 0 1 2 0 0 0 0 0 13 16 13 1 0 0 0 0 0 0 0 0 29 23 0 3 8 30 27 72 101 581 475 483 555
2 0 0 3 0 0 0 7 0 3 5 1 4 2 1 1 0 2 2 3 3 0 0 0 0 0 0 0 1 27 40 48 20 1 0 0 0 0 0 0 0 0 1 6 0 0 0 49 62 47 408 364 305 243
0 0 3 2 0 0 1 4 0 0 0 0 1 0 0 1 2 2 3 1 0 0 0 0 0 0 0 0 18 5 34 44 24 0 0 0 0 0 212 10 0 0 0 0 34 99 87 74 19 50 100 175 190 104
0 4 0 0 0 0 8 0 0 1 1 1 2 1 2 1 1 3 4 1 0 0 0 20 3 25 0 14 20 21 26 6 0 2 29 15 0 59 68 94 0 0 0 214 422 218 69 102 0 46 54 31 0 0
3 1 0 0 0 0 2 0 0 3 0 1 5 4 0 0 0 0 0 0 0 1 8 6 3 5 32 29 0 5 1 0 0 0 0 17 118 113 61 113 20 2 27 685 361 40 6 8 5 4 0 17 0 1
0 2 0 0 0 0 3 0 1 2 1 7 20 3 0 0 0 0 0 0 0 4 0 0 0 5 12 16 36 6 1 0 0 0 2 26 74 2 20 88 322 165 307 554 378 219 136 122 145 49 4 0 0 0
0 1 0 0 0 3 4 6 3 2 3 1 1 3 1 0 4 5 21 10 2 0 0 0 0 0 2 25 33 24 2 0 0 0 0 0 34 36 12 151 482 529 564 545 373 283 268 370 385 234 75 24 11 52
0 0 0 0 0 4 4 2 0 2 1 0 0 0 0 0 0 5 9 0 2 0 0 0 2 0 1 18 13 5 0 0 0 0 0 0 0 147 93 249 391 326 333 370 285 212 139 10 0 2 22 0 1 0
0 0 0 0 2 2 0 0 0 0 0 0 0 0 0 0 4 16 9 7 2 0 7 1 1 0 8 25 30 0 0 0 0 0 0 0 0 209 281 324 215 213 175 141 103 37 0 0 0 0 0 0 0 0
0 0 0 1 0 0 1 0 0 0 0 0 0 0 0 0 0 0 4 4 0 8 16 20 10 3 1 12 0 0 0 0 0 0 0 0 49 103 153 114 135 132 91 45 12 0 0 0 0 0 0 0 0 0
0 0 0 2 2 3 3 1 0 0 0 0 0 2 1 3 4 3 6 11 11 19 17 11 19 13 34 8 0 0 0 0 1 0 7 141 131 127 89 89 77 37 14 0 0 0 0 0 0 0 0 0 0 0
1 2 6 4 0 1 11 5 0 0 0 0 0 4 11 4 1 4 7 2 2 9 6 1 0 0 13 1 0 1 0 0 2 10 0 78 88 109 28 8 8 0 0 0 0 0 0 0 0 0 0 0 0 0
2 3 0 0 1 5 0 0 0 0 0 0 1 12 12 11 16 7 6 2 1 3 0 0 0 0 0 0 0 0 0 0 0 9 10 24 4 36 33 24 2 0 0 0 0 0 0 0 0 0 0 0 0 0
2 0 0 0 0 0 0 0 0 0 11 7 14 13 6 14 13 2 4 2 2 0 0 0 0 0 0 0 0 0 6 4 16 10 0 16 0 11 38 35 30 3 0 1 0 0 0 0 0 0 0 0 0 0
0 5 2 6 0 0 0 0 0 2 3 9 21 8 13 11 3 2 11 12 5 1 3 4 5 1 1 4 42 26 39 59 86 56 29 25 31 7 24 54 69 55 24 17 3 0 0 0 0 0 0 0 0 1
0 0 0 3 0 0 0 0 0 6 2 1 1 4 2 5 4 9 16 3 16 17 7 1 33 26 7 20 14 10 19 30 24 51 32 36 10 3 28 43 43 16 0 3 16 13 9 0 0 0 0 0 0 2
0 0 0 0 0 0 1 1 1 3 6 1 1 0 1 0 9 9 15 29 28 34 42 41 42 22 21 5 26 10 9 2 0 5 13 11 5 31 26 9 5 24 19 25 19 31 9 26 27 17 8 6 11 20
9 9 4 0 0 0 7 9 6 6 0 2 4 2 1 14 7 1 6 8 21 17 10 25 6 16 11 5 1 0 2 0 0 0 0 0 0 1 0 4 14 22 16 21 3 1 11 40 47 53 52 34 26 11
7 1 15 3 0 0 8 10 5 0 7 0 3 3 4 7 8 30 34 13 1 1 29 16 5 0 1 1 0 0 0 0 0 0 0 0 0 0 3 4 3 7 21 13 7 5 0 8 29 33 27 48 59 52
0 0 0 0 0 18 25 24 7 5 14 6 10 0 21 16 29 15 22 17 16 3 4 3 0 0 0 0 0 0 0 0 2 0 4 0 0 0 0 0 0 0 0 0 0 0 2 13 10 13 7 20 21 32
0 0 0 0 6 0 8 0 26 14 4 9 20 21 28 37 34 29 22 11 30 29 18 3 3 7 8 11 3 1 0 0 0 0 3 2 10 0 0 0 0 0 0 0 0 1 2 0 0 0 0 0 0 0
0 0 0 7 15 31 12 9 5 5 4 6 20 20 22 17 17 0 4 0 1 25 26 11 13 10 14 10 14 9 3 1 0 0 0 0 0 0 0 1 0 0 0 0 0 5 8 27 24 22 2 3 0 12
0 2 4 3 3 2 3 0 6 21 16 36 34 19 16 23 2 0 0 0 0 12 3 10 30 17 2 0 0 0 0 0 0 0 0 0 0 0 0 0 0 6 0 0 0 0 1 0 0 2 12 2 6 6
1 5 8 6 2 4 4 0 9 4 3 6 4 3 12 4 3 29 21 0 0 0 0 0 0 0 0 0 0 0 6 0 0 0 1 0 0 0 2 0 0 0 1 4 0 0 0 8 4 0 0 0 6 4

GFSWCAN_con_mlcape_282.txt.gz
CAPE
1 1 0 0 1 1 0 0 0 0 0 0 0 0 1 2 1 0 0 0 1 3 0 0 0 0 0 0 0 0 0 0 0 9 9 36 61 100 129 64 51 4 0 0 0 0 0 0 138 35 2 332 392 224
1 1 1 0 1 1 0 0 0 0 0 0 0 0 0 2 0 10 2 0 3 11 0 0 0 0 0 0 0 0 0 0 0 0 0 1 118 114 63 53 0 0 0 0 0 0 0 0 62 113 174 372 481 351
2 1 1 0 1 1 0 0 0 0 0 0 0 1 2 1 0 5 15 6 5 5 0 0 0 0 0 0 0 0 0 0 0 0 0 0 1 0 0 0 0 0 0 0 1 15 24 25 4 3 254 524 624 477
3 1 0 1 2 1 0 0 0 0 0 0 0 0 2 2 0 11 11 14 8 6 0 0 0 0 0 0 0 0 0 0 0 0 0 0 0 0 0 0 0 0 0 0 0 0 0 3 0 0 21 43 278 342
2 1 1 1 2 2 0 0 0 0 0 0 0 0 4 0 2 2 0 2 16 9 1 0 0 0 0 0 0 0 0 0 0 0 0 0 0 0 0 0 0 0 0 0 0 0 0 0 0 0 1 10 73 163
2 1 1 1 3 0 0 0 0 0 0 0 0 0 0 0 0 0 4 5 2 1 1 0 0 0 0 0 0 0 0 0 0 0 0 0 0 0 0 0 9 0 0 0 0 0 0 0 3 15 6 19 58 38
1 1 1 2 1 0 1 0 0 0 0 0 0 1 1 0 0 5 0 0 0 0 1 1 0 0 0 0 0 0 0 0 0 0 0 0 0 0 0 0 0 0 0 0 0 0 0 0 0 0 0 0 133 80
1 1 1 2 2 0 1 0 0 0 0 0 4 3 0 0 1 1 0 0 0 0 4 3 0 0 0 0 0 0 0 0 0 0 0 0 0 0 0 0 0 0 0 0 0 0 2 0 0 0 0 160 217 443
1 2 2 2 2 1 0 0 0 1 0 0 0 0 1 7 11 0 0 0 0 0 1 2 0 0 0 0 0 0 0 0 0 0 0 0 0 0 0 0 0 0 0 0 2 2 0 0 0 0 3 307 389 428
2 2 1 3 2 0 0 0 5 3 0 0 4 1 1 4 2 0 1 0 1 1 0 1 0 0 0 0 0 10 3 5 5 0 0 0 0 0 0 0 0 0 0 0 2 33 2 0 0 0 249 525 568 542
1 1 2 1 1 0 0 5 2 5 6 1 1 3 2 3 0 6 13 12 7 2 0 0 0 0 0 0 0 28 51 54 22 0 0 0 0 0 0 0 0 0 0 0 0 0 0 3 0 48 276 679 755 672
1 1 0 0 1 0 2 5 1 0 0 0 1 0 0 3 5 5 14 7 3 0 0 0 0 0 0 0 7 29 43 34 21 0 0 0 0 12 0 21 12 0 0 0 0 0 1 6 20 45 300 615 696 604
1 0 1 1 3 0 1 4 4 0 0 0 7 5 3 4 6 10 4 1 0 0 0 6 8 5 0 0 21 23 36 19 0 0 0 7 0 1 0 22 0 0 0 0 1 21 41 52 14 18 128 186 181 194
0 4 2 1 0 0 10 2 4 3 0 1 13 3 0 0 0 0 0 0 0 0 9 13 2 8 32 16 15 28 14 6 0 0 0 0 0 2 0 3 66 0 12 226 138 128 38 9 0 3 28 0 3 50
3 2 3 0 0 2 4 0 1 0 1 7 10 3 0 0 0 0 0 0 0 4 4 0 0 7 19 38 14 1 7 0 0 0 0 0 0 0 0 3 321 2 219 370 135 133 74 23 72 147 3 0 0 0
5 2 0 0 0 9 2 6 5 0 2 1 2 4 4 6 7 13 4 1 0 4 0 0 0 0 6 23 14 27 6 0 0 0 0 0 0 0 24 34 380 261 413 208 52 20 18 13 10 0 0 0 0 0
0 0 0 0 9 2 3 1 0 1 1 1 0 0 0 0 0 0 15 2 1 0 0 0 0 0 0 11 1 0 0 0 0 0 0 0 0 0 105 205 375 258 185 97 78 89 64 6 0 0 5 0 0 0
0 0 0 0 4 3 3 1 1 1 0 0 0 0 0 0 2 16 17 22 4 0 4 0 3 0 3 6 1 0 0 0 0 0 0 0 0 0 164 218 164 144 75 56 45 3 0 0 6 7 0 0 0 0
1 0 0 2 0 0 3 1 2 1 0 0 0 0 0 0 0 0 0 12 5 1 2 9 4 0 0 0 0 2 0 3 0 0 0 0 31 7 88 110 100 96 33 34 13 0 0 0 0 0 0 0 0 0
0 0 3 2 1 2 0 0 0 0 0 0 0 0 0 0 9 15 8 9 2 20 3 1 6 10 5 24 15 0 1 4 1 0 0 2 69 46 71 18 26 39 7 2 0 0 0 0 0 0 0 0 0 0
1 3 6 1 0 7 4 0 0 0 0 0 0 0 9 12 10 4 6 7 19 14 0 3 4 4 25 14 12 0 0 0 1 1 0 0 24 16 15 31 18 0 1 0 0 0 0 0 0 0 0 0 0 0
0 0 0 0 1 1 0 3 0 0 0 1 0 5 13 1 0 3 8 1 2 0 0 0 0 1 0 0 0 0 0 0 0 0 1 6 34 18 4 6 5 2 0 0 0 0 0 0 0 0 0 0 0 0
0 1 0 0 0 0 0 0 0 0 4 5 14 7 6 11 2 1 2 2 0 1 1 0 0 0 0 0 3 18 8 1 11 13 9 5 3 1 2 11 9 0 0 0 0 0 0 0 0 0 0 0 0 0
0 1 0 3 2 0 0 0 0 2 4 24 17 10 9 10 3 14 7 2 26 1 0 1 1 2 7 21 1 26 25 38 33 8 6 22 17 22 38 40 32 0 0 3 2 0 0 0 0 0 0 0 0 0
0 0 0 0 0 1 0 0 0 3 5 7 6 13 17 12 7 5 22 8 8 10 22 9 9 1 44 14 3 28 22 25 3 34 29 19 15 0 0 25 21 26 17 30 23 3 0 0 0 2 0 0 0 0
0 0 0 0 0 0 1 2 1 1 1 7 4 8 15 7 11 13 1 13 3 1 5 30 11 19 6 6 9 9 0 0 0 0 1 10 3 34 47 39 51 53 14 25 38 30 4 4 0 2 9 2 0 0
13 14 0 0 0 0 7 5 3 1 0 2 0 2 3 4 11 11 3 2 0 0 0 3 9 0 0 6 0 0 0 0 0 0 0 0 0 0 2 4 7 16 54 53 35 28 26 18 20 31 36 14 5 2
3 1 10 0 0 0 5 7 3 1 6 0 2 10 5 13 14 26 16 5 0 0 0 0 0 0 0 0 0 0 0 0 0 0 0 0 0 0 0 0 0 6 9 7 7 17 9 10 4 4 22 48 43 16
0 0 0 0 2 8 21 15 3 7 7 5 2 10 16 38 23 27 27 16 1 3 3 3 0 0 0 0 0 0 0 2 6 0 1 3 0 0 0 0 0 0 0 0 0 0 0 0 0 0 0 0 0 4
0 0 0 0 2 3 10 1 22 16 21 7 23 20 13 6 0 0 0 6 16 10 6 8 6 0 1 1 1 0 0 0 0 0 0 1 3 0 0 0 0 0 0 0 0 0 0 0 0 0 1 1 0 0
0 0 0 2 15 17 24 17 8 0 9 5 5 7 1 0 0 0 0 0 0 2 3 0 5 6 0 0 0 1 0 0 0 0 0 1 0 0 0 0 0 0 0 0 2 1 1 0 0 0 0 0 0 0
0 0 1 8 13 6 3 0 5 19 25 12 6 12 11 0 0 0 0 0 0 0 0 0 0 0 0 0 0 0 0 0 0 0 0 0 0 0 0 0 0 0 0 0 0 0 0 0 0 3 0 0 0 4
0 1 2 8 7 1 7 7 5 8 9 13 13 12 2 2 0 0 0 0 0 0 0 0 0 0 0 0 0 0 0 0 0 0 0 0 0 0 0 0 0 0 0 0 2 2 5 8 10 6 0 0 0 0

GFSWCAN_con_mlcape_285.txt.gz
CAPE
0 3 2 2 1 0 2 1 0 0 0 0 0 0 0 2 2 0 0 1 2 1 0 0 0 0 0 0 0 0 0 0 0 0 0 11 15 25 19 77 133 152 126 119 1 0 0 1 146 103 74 333 592 781
0 1 3 2 1 1 2 1 0 0 0 0 0 0 0 4 1 2 4 3 13 12 0 0 0 0 0 0 0 0 0 0 0 0 0 0 6 3 112 111 15 98 228 332 246 248 64 44 34 31 63 350 636 714
6 3 4 2 1 1 1 2 1 0 0 0 0 0 0 4 2 0 8 6 7 5 0 0 0 0 0 0 0 0 0 0 0 0 0 0 0 0 13 41 7 8 0 93 85 292 197 30 0 17 17 185 277 790
12 15 4 2 1 1 2 2 0 0 0 0 0 0 0 2 3 2 10 15 5 4 0 0 0 0 0 0 0 0 0 0 0 0 0 0 0 0 0 0 0 13 26 146 113 60 60 0 0 0 6 8 53 525
24 20 2 2 1 1 2 3 0 0 0 0 0 0 0 2 3 3 4 1 11 4 0 0 0 0 0 0 0 0 0 0 0 0 0 0 0 0 0 0 0 0 96 88 86 76 2 0 0 0 14 5 37 154
24 17 3 2 0 1 2 1 1 0 0 0 0 0 0 0 2 0 1 2 0 8 1 0 0 0 0 0 0 0 0 0 0 0 0 0 0 1 0 1 39 36 7 2 1 0 5 0 0 0 0 0 5 119
32 3 3 1 1 2 1 1 0 0 0 0 0 0 0 0 0 1 0 0 0 0 2 1 0 0 0 0 0 0 0 0 0 0 0 0 0 0 0 0 0 0 0 0 0 0 0 0 11 17 29 1 119 267
7 1 1 1 2 1 1 0 0 0 0 0 0 0 0 0 0 0 0 0 0 0 4 2 0 0 0 0 0 0 0 0 0 0 0 0 0 0 0 0 0 0 0 0 0 0 0 0 3 11 27 71 490 780
1 1 1 2 1 1 1 0 0 0 0 0 0 1 3 2 1 0 0 0 0 1 7 5 0 0 0 0 0 0 0 0 0 0 0 0 0 0 0 0 0 0 0 0 0 12 10 3 8 9 21 288 461 555
1 1 2 2 0 0 0 0 0 0 2 0 3 2 1 2 1 1 1 1 1 1 1 4 0 0 0 0 0 11 3 9 8 1 0 0 0 0 0 0 0 0 0 0 0 0 0 0 49 56 231 686 676 860
2 2 2 2 1 0 0 2 3 7 6 3 3 0 4 14 6 16 11 11 7 5 0 1 0 0 0 0 0 22 31 38 17 0 0 1 0 0 29 4 28 0 0 0 0 0 0 0 1 79 550 774 586 346
2 2 1 1 0 0 2 5 3 1 0 0 0 1 1 2 12 4 5 8 3 1 0 0 0 0 0 0 2 30 49 55 22 1 13 4 0 2 53 23 52 30 4 0 0 0 0 3 75 185 706 944 765 682
1 1 1 1 2 1 3 1 5 0 0 0 4 0 8 4 12 1 8 6 3 0 0 1 24 3 0 0 17 45 46 35 3 7 23 21 3 0 0 0 13 119 0 0 0 0 42 152 188 264 594 988 1088 899
0 0 1 1 1 2 7 8 6 2 2 10 15 4 0 0 0 2 0 0 0 0 15 11 10 21 54 43 35 51 46 19 14 13 21 2 0 0 0 0 33 215 72 162 97 113 177 205 190 243 350 664 825 685
3 2 3 0 0 2 4 6 2 0 1 17 11 1 0 0 0 1 0 0 0 3 11 9 7 11 19 29 44 20 19 3 10 11 23 21 0 0 0 0 57 235 290 493 281 209 119 172 226 251 294 381 433 277
3 1 0 2 1 12 3 5 1 0 0 1 1 7 14 14 14 8 15 27 6 5 0 7 1 14 18 26 16 25 19 3 4 11 1 9 0 0 0 3 233 455 558 335 273 223 174 255 283 161 65 17 9 3
0 0 0 0 9 1 1 1 1 0 0 4 1 0 0 0 0 4 3 18 18 0 0 6 7 13 4 31 12 21 20 15 11 13 0 0 0 0 0 182 421 499 396 315 213 52 39 22 0 0 0 0 0 0
0 0 0 18 7 6 8 4 1 6 2 0 0 0 0 0 0 19 12 21 4 1 6 0 1 7 12 6 10 18 8 0 0 0 0 0 9 13 34 262 237 362 233 69 45 105 105 61 36 1 0 1 0 2
0 0 2 8 5 18 12 17 2 3 0 0 0 0 0 0 0 0 0 0 8 5 6 6 0 0 0 0 1 15 6 0 0 0 0 4 33 56 84 232 171 77 78 65 44 37 24 70 41 0 0 0 0 0
0 0 5 2 1 2 5 4 2 0 0 0 0 0 0 0 2 11 15 2 4 4 4 1 1 2 7 9 31 15 21 5 1 0 1 2 17 36 104 94 74 5 0 4 7 6 1 0 0 0 0 0 0 0
0 5 3 1 1 8 2 0 0 0 0 0 0 0 2 0 5 13 11 6 9 3 2 2 0 6 6 12 6 4 27 32 0 0 0 1 1 17 14 4 6 1 23 12 7 0 0 0 0 0 0 0 0 0
0 0 0 0 0 0 0 0 0 0 1 0 0 2 7 6 2 0 0 3 6 3 0 2 7 17 7 3 23 20 14 23 5 0 2 3 24 20 19 28 20 34 8 0 0 0 0 0 0 0 0 0 0 0
0 0 0 0 0 0 0 0 0 1 4 6 5 21 6 0 0 0 1 2 0 0 0 0 7 5 0 0 0 0 0 22 10 9 21 8 11 15 33 27 14 14 0 0 0 0 0 0 0 0 0 0 0 0
1 0 8 5 0 0 0 0 0 0 9 19 4 8 3 3 4 15 14 23 30 2 1 1 5 9 19 12 13 17 17 9 33 35 10 10 6 0 1 10 29 48 17 3 0 0 0 0 0 0 0 0 0 0
0 0 0 0 0 0 0 0 0 0 14 12 8 7 4 6 9 11 14 6 15 9 13 23 53 19 7 21 19 8 16 11 12 46 48 33 20 34 21 26 60 96 47 52 54 52 39 16 1 0 0 0 0 0
0 0 0 0 0 0 0 1 2 6 6 11 12 8 24 10 5 6 28 26 29 11 2 12 27 38 24 23 9 1 1 0 0 56 64 47 41 52 59 53 60 80 36 42 59 55 32 19 18 28 35 21 2 2
18 16 0 0 0 0 2 0 0 0 1 4 1 1 6 8 21 11 2 11 16 2 2 4 4 8 7 0 0 0 0 0 0 0 0 7 12 16 58 92 91 105 68 48 63 61 57 34 33 27 32 41 45 27
1 0 7 1 3 0 4 7 1 8 2 9 4 6 21 6 32 27 25 8 0 0 0 0 0 0 0 0 0 0 0 0 0 0 0 0 0 0 0 11 32 46 73 64 41 27 19 24 32 54 85 91 80 59
0 0 0 0 2 5 6 4 20 2 8 7 9 14 32 11 11 9 7 0 2 14 13 5 0 0 0 0 0 0 0 0 0 1 6 0 0 0 0 0 0 0 0 0 0 0 3 23 18 21 24 22 10 15
0 0 0 1 3 12 13 2 17 25 41 15 13 0 0 0 0 0 1 4 10 4 1 0 0 7 6 9 9 7 0 0 0 1 5 1 0 0 0 0 0 0 1 0 0 0 0 0 4 6 9 24 32 49
0 0 0 3 21 25 22 15 9 9 8 9 18 0 0 0 0 0 0 0 0 0 0 0 0 0 0 0 3 6 2 0 0 0 0 0 0 0 0 0 0 0 1 2 10 12 12 11 16 12 7 7 15 13
0 0 2 8 18 5 0 4 8 9 11 6 3 20 6 1 0 0 0 0 0 0 0 0 0 0 0 0 0 0 0 0 0 1 0 0 0 0 0 0 0 0 5 13 12 10 8 15 23 32 32 18 10 4
0 0 1 0 5 1 2 6 0 0 10 11 7 8 10 3 0 0 0 0 0 0 0 0 0 0 0 0 0 0 0 0 0 0 0 0 0 0 0 0 0 1 5 20 64 70 62 46 44 39 21 2 25 38

GFSWCAN_con_mlcape_288.txt.gz
CAPE
3 0 0 2 3 2 1 0 1 0 0 0 0 0 0 0 0 1 2 8 5 1 0 0 0 0 0 0 0 0 0 0 0 0 15 28 33 91 88 42 171 106 224 155 234 198 50 664 710 570 624 698 866 1395
4 0 0 0 3 2 1 0 2 0 0 0 0 0 0 0 0 0 8 14 19 8 0 0 0 0 0 0 0 0 0 0 0 0 45 189 144 299 23 62 450 174 267 507 421 499 790 591 529 439 517 663 1118 1200
9 3 0 0 2 3 1 1 1 1 0 0 0 0 0 0 0 0 2 7 11 0 0 0 0 0 0 0 0 0 0 0 6 0 28 81 80 189 33 19 150 286 464 274 573 670 574 493 455 435 499 470 347 600
16 9 3 0 1 2 1 1 1 1 0 0 0 0 0 0 1 1 7 20 7 5 0 0 0 0 0 0 0 0 0 0 0 0 0 2 13 4 38 41 63 281 322 397 510 651 609 529 373 231 339 343 478 998
6 0 8 8 13 2 0 1 1 2 0 0 0 0 0 0 0 6 14 12 6 10 1 0 0 0 0 0 0 0 0 0 0 0 0 10 32 0 38 39 53 183 142 368 405 664 432 311 14 0 104 232 268 534
2 0 11 19 8 1 1 1 1 1 0 0 0 0 0 0 0 5 7 2 1 15 5 0 0 0 0 0 0 0 0 0 0 0 0 0 0 0 3 53 139 318 174 269 441 419 191 1 0 112 148 299 227 197
0 0 21 23 3 1 1 2 2 0 0 0 0 0 0 0 2 1 5 1 0 6 0 1 0 0 0 0 0 0 0 0 0 0 0 0 0 0 0 0 21 31 0 0 0 0 0 0 0 131 350 331 144 817
0 8 33 8 1 1 2 2 0 0 0 2 0 0 0 0 0 0 2 0 1 1 2 4 0 0 0 10 1 0 0 0 0 0 0 0 0 0 0 0 0 3 5 0 0 0 0 0 55 171 233 257 346 1159
12 3 5 1 1 2 1 0 0 1 1 0 0 0 3 6 7 6 0 0 2 3 13 15 1 10 0 12 23 0 0 6 5 0 0 1 1 6 0 0 0 0 0 0 0 96 202 361 261 203 197 360 684 1237
8 3 1 1 2 1 0 0 1 4 1 1 0 1 0 13 0 0 13 3 1 4 1 5 0 0 0 0 35 39 17 48 22 1 6 0 0 0 1 7 142 16 2 0 0 0 0 40 7 30 361 501 1142 1260
2 1 1 2 1 0 0 0 4 6 7 1 2 2 4 3 12 3 22 20 18 9 7 1 0 0 0 1 0 22 55 31 12 12 3 10 11 122 244 530 656 628 609 584 58 0 0 0 0 8 647 1113 1424 1701
1 1 2 2 1 0 0 9 8 2 0 0 1 15 17 3 5 9 6 5 14 9 14 14 17 2 11 0 4 15 42 43 34 67 46 47 290 322 236 190 361 579 757 678 410 263 0 0 0 60 707 1337 1540 1254
2 2 2 1 0 0 12 3 0 0 0 1 24 9 5 12 21 6 13 16 19 8 4 3 22 16 13 4 21 37 40 31 57 40 25 131 473 356 219 195 331 651 910 294 124 6 0 0 250 607 1026 1503 1379 1324
2 2 2 1 1 4 9 9 3 2 0 41 24 12 3 1 4 8 12 14 23 19 9 2 38 39 53 46 21 21 27 35 43 33 36 197 555 381 230 345 521 626 774 791 452 453 481 658 855 882 1223 1677 1778 1549
1 2 4 5 2 11 12 8 1 0 1 28 32 4 1 6 13 24 24 6 5 2 26 22 32 15 20 31 25 33 36 16 22 44 110 191 416 326 277 352 156 468 1106 1288 1070 935 992 1019 1091 1253 1436 1765 1929 1422
3 1 1 2 4 7 7 3 0 0 1 3 16 8 21 19 19 8 15 34 27 23 40 22 22 11 8 22 32 13 20 12 57 97 105 91 185 219 223 267 222 630 1473 1346 1189 1084 1194 1312 1351 1263 1432 1426 1258 1031
0 1 2 2 4 3 3 1 0 0 1 1 11 12 26 18 4 2 33 52 119 4 0 15 16 13 51 25 18 34 27 118 98 69 28 52 8 2 149 425 583 982 1389 1110 932 1095 1038 768 879 686 582 420 348 325
0 1 0 8 2 2 11 5 0 0 0 7 18 17 3 0 5 0 10 4 2 7 23 16 6 13 23 17 33 78 97 87 43 35 19 53 26 169 240 395 468 968 892 622 828 578 705 809 778 538 335 207 182 203
1 2 10 1 5 6 8 4 1 2 1 13 0 0 0 0 0 4 27 23 39 64 5 10 5 4 4 6 14 11 22 25 12 6 10 62 62 143 176 310 530 788 792 650 562 621 563 565 386 311 282 319 292 274
1 12 4 2 0 1 11 9 0 2 12 26 1 1 2 7 33 44 33 7 13 16 18 10 2 6 19 35 24 3 11 16 13 0 0 33 74 25 75 418 539 342 146 105 90 74 75 84 186 236 246 194 103 7
1 3 4 0 0 2 35 8 8 5 1 1 6 1 8 18 21 42 58 85 25 7 2 4 19 22 35 9 9 0 0 1 0 23 7 17 46 0 51 42 0 17 69 92 55 32 74 60 26 0 9 2 0 0
2 1 0 0 2 13 3 15 13 17 8 10 15 23 18 21 11 2 0 0 4 11 8 15 15 12 11 17 9 3 7 32 38 46 20 6 4 3 51 47 4 20 68 89 56 39 32 4 0 0 0 0 0 0
0 0 0 1 2 0 4 2 0 6 5 5 3 7 4 0 1 1 0 1 0 0 0 0 0 5 27 35 47 46 12 6 28 20 3 18 10 24 8 8 35 99 88 45 0 0 0 0 0 0 0 0 0 0
0 21 11 6 2 0 12 0 0 1 3 5 0 2 5 2 6 24 7 4 0 5 2 0 0 0 8 8 4 7 20 29 19 23 11 42 4 1 23 35 35 79 11 0 0 0 0 0 0 0 0 0 0 0
0 0 0 0 2 4 7 18 21 7 9 4 1 2 3 9 3 3 9 8 26 21 38 36 26 19 7 4 19 14 20 48 65 14 4 7 0 2 19 21 19 81 170 82 48 13 2 0 0 0 0 0 0 0
0 0 0 0 7 1 11 20 20 13 5 0 2 19 8 6 11 9 42 30 41 22 9 10 47 39 28 14 12 0 0 0 17 45 32 30 11 11 5 3 32 82 137 168 193 227 176 142 95 57 27 7 0 0
1 6 0 0 0 1 13 5 4 4 3 4 4 3 11 6 4 38 19 10 4 0 2 0 0 0 1 0 0 0 0 0 0 19 91 64 29 6 6 6 36 199 106 120 197 215 183 135 100 105 106 118 123 99
1 0 20 11 12 10 10 9 5 8 7 5 4 3 16 5 9 12 23 7 14 28 17 0 0 0 0 0 0 3 3 0 1 0 0 0 2 38 53 95 171 134 194 164 111 72 51 54 67 114 157 174 168 141
0 0 1 30 17 15 25 12 15 7 6 11 8 6 3 4 7 5 7 6 8 7 14 43 37 39 28 4 21 19 17 8 31 10 1 1 4 4 8 12 17 18 11 1 0 1 52 44 49 58 66 62 58 65
11 0 4 11 22 17 25 11 3 14 47 11 0 0 0 0 0 0 0 0 0 0 0 0 3 25 37 38 41 32 23 24 9 37 42 48 49 41 40 31 29 31 31 26 29 14 0 5 16 33 49 71 78 82
0 5 26 36 4 10 8 18 4 15 25 18 4 0 0 0 0 0 0 0 0 0 0 0 0 0 0 0 0 1 4 5 17 16 9 18 19 16 10 11 15 21 18 17 22 33 48 48 53 51 46 48 43 17
0 19 28 8 10 5 16 4 5 7 2 4 12 10 10 0 0 0 0 0 0 0 0 0 0 0 0 0 0 0 0 0 0 0 0 0 0 0 9 9 9 14 20 26 34 43 47 41 49 53 47 54 56 70
6 18 15 19 3 1 12 6 12 8 0 0 1 1 22 0 0 0 0 0 0 0 0 0 0 0 0 0 0 0 0 0 0 0 0 0 0 0 0 0 0 0 0 8 28 59 81 94 92 83 91 103 131 133

GFSWCAN_con_mlcape_291.txt.gz
CAPE
2 2 2 0 0 1 3 3 0 1 0 0 0 0 0 0 0 0 0 0 0 0 0 0 0 0 0 0 0 0 0 0 0 2 2 13 37 51 201 34 30 51 91 215 107 113 219 555 466 545 805 795 910 1279
7 1 0 0 0 0 4 2 0 0 0 0 0 0 0 0 0 0 0 0 1 0 0 0 0 0 0 0 0 0 0 0 18 0 0 8 31 103 153 118 40 17 18 44 215 378 64 189 554 792 723 750 864 965
4 5 0 0 0 0 2 2 1 1 1 0 0 0 0 0 0 0 7 5 1 0 0 0 0 0 0 0 0 0 0 0 1 17 139 42 44 41 51 83 35 64 167 255 103 83 526 428 536 614 647 868 827 792
5 3 2 0 0 0 0 2 1 1 0 0 0 0 0 0 0 0 1 9 1 0 0 0 0 0 0 0 0 0 0 0 0 0 0 0 6 20 10 6 63 134 522 276 84 8 190 517 632 421 346 566 644 823
1 5 8 3 0 0 0 2 0 1 2 0 0 0 0 0 0 0 1 2 13 4 0 0 0 0 0 0 0 0 0 0 0 0 0 0 6 40 18 0 6 24 33 45 126 670 684 457 466 195 145 407 668 629
0 6 2 0 1 0 1 1 1 1 1 0 0 0 0 0 0 5 7 2 5 14 7 0 0 0 0 0 0 0 0 0 0 0 0 0 11 0 0 4 43 65 71 125 269 446 369 410 204 0 221 523 645 555
2 2 2 0 8 13 0 0 1 1 0 0 1 0 0 0 0 5 1 2 0 17 6 0 0 0 0 0 0 0 0 0 0 0 0 0 0 0 0 0 0 20 40 78 162 37 14 3 10 0 43 524 589 485
2 1 0 1 8 13 1 1 2 1 0 0 0 0 0 0 0 4 2 0 5 0 7 5 0 0 0 2 1 4 0 0 0 0 0 0 0 0 0 0 0 0 0 0 0 0 0 0 0 0 60 301 471 483
0 0 0 13 17 2 1 2 1 0 0 8 0 0 8 12 18 6 0 0 33 6 3 13 7 25 3 14 22 4 15 8 0 0 0 0 0 0 0 0 15 16 2 2 0 0 3 1 0 197 374 348 457 802
0 0 4 11 2 1 2 1 0 1 3 0 7 1 0 2 0 0 4 18 1 6 11 2 0 0 4 22 28 21 21 19 13 2 4 3 1 10 11 17 40 215 372 263 40 0 1 18 238 186 225 329 505 1038
0 8 2 2 1 2 1 0 10 2 10 17 6 5 5 2 28 46 48 23 8 5 1 0 2 0 0 23 19 61 63 27 9 1 8 16 12 25 157 449 619 612 916 872 584 423 174 9 16 126 122 419 725 1586
3 0 1 2 2 2 0 7 3 7 6 5 4 1 2 12 14 42 25 25 7 5 15 13 10 0 14 23 39 20 41 62 43 48 32 24 402 846 696 576 460 606 931 990 1043 793 673 188 41 113 117 518 1422 2143
1 1 2 2 2 0 7 7 4 0 0 0 10 15 4 4 5 15 15 20 14 11 43 35 33 34 19 59 58 67 38 43 86 44 50 229 622 768 688 661 739 927 1081 1285 973 628 593 407 85 81 593 1363 1979 1923
2 2 3 3 3 6 3 7 0 0 0 11 24 3 13 10 16 4 0 17 25 26 24 43 42 56 76 76 78 38 57 86 37 16 29 571 625 755 771 824 797 800 1173 1171 775 421 273 120 216 1002 1179 1738 1651 1128
2 2 3 1 3 11 14 10 7 0 8 33 24 0 2 21 22 18 15 31 42 52 45 21 79 90 46 53 38 47 52 17 14 44 201 514 759 751 743 649 528 644 1328 1518 1426 1256 1291 1290 1421 1435 1628 1744 1405 1115
4 4 3 4 12 11 8 5 0 0 34 29 25 23 37 31 15 42 29 25 29 14 68 62 66 44 20 36 40 34 23 17 120 250 240 354 637 466 342 371 675 957 1483 1849 1805 1784 1863 1822 1890 1972 2140 2073 1590 1295
0 1 0 15 7 5 3 0 0 0 23 30 25 14 22 30 30 29 27 27 91 18 40 54 37 25 36 32 44 61 55 317 323 158 103 405 519 423 424 617 763 1292 1356 1665 1666 2020 1854 1860 1620 1619 1718 1679 1597 1252
1 2 8 0 5 6 3 1 0 0 10 11 18 16 30 0 20 1 22 50 130 65 29 29 62 40 32 34 69 198 233 228 183 180 141 214 473 509 463 568 701 1081 1205 1033 1317 1490 1557 1423 1333 1286 1064 966 930 859
1 6 2 2 9 9 2 1 0 2 6 5 15 7 17 12 0 0 7 18 20 26 14 48 11 19 41 51 38 46 59 28 22 13 23 42 508 415 488 418 734 869 964 435 897 1097 1225 1300 1073 1001 776 713 630 576
3 4 2 1 1 13 2 15 2 4 14 15 30 45 26 14 31 19 15 16 10 37 21 9 11 63 36 10 22 31 18 8 11 10 16 22 88 436 351 206 726 712 574 654 600 527 672 715 659 752 845 801 713 571
19 5 0 0 0 0 26 16 5 6 8 18 10 22 17 6 23 41 65 85 44 26 10 19 25 16 33 38 18 26 18 18 12 20 11 7 29 183 157 94 160 227 247 299 193 150 200 201 212 224 280 309 303 276
0 0 1 0 3 35 25 36 19 22 15 14 24 28 35 51 87 93 25 20 13 4 2 10 14 21 31 2 10 9 19 15 11 11 7 4 10 76 60 203 193 85 45 24 50 84 91 86 104 117 106 87 50 0
0 1 9 7 7 3 5 26 27 29 18 5 9 1 0 0 0 2 0 7 11 0 0 0 1 2 5 24 39 39 32 30 25 29 30 30 50 92 20 185 51 0 0 50 38 34 53 24 1 2 0 0 0 0
0 34 7 2 6 2 1 0 0 7 3 4 0 0 4 1 5 0 0 0 0 1 6 2 48 9 7 13 26 49 64 46 35 51 57 6 4 43 8 11 3 14 39 41 5 0 0 0 0 0 0 0 0 0
3 0 0 0 5 14 17 19 18 11 3 2 5 1 3 1 3 5 1 16 13 11 2 4 9 11 5 6 19 4 3 19 25 20 27 9 9 17 15 3 13 77 162 126 53 23 2 0 1 0 0 0 0 0
0 17 0 21 29 22 24 7 5 2 3 3 2 9 5 15 12 6 19 35 11 6 21 2 4 1 1 4 0 2 6 2 6 7 5 4 1 0 0 0 4 32 98 171 230 138 124 115 77 36 20 3 0 0
0 4 19 10 16 20 20 10 7 3 7 10 8 8 2 6 2 11 27 27 21 18 2 1 0 0 0 1 0 10 11 3 9 11 7 2 1 8 12 12 41 110 89 117 137 283 214 179 131 85 100 73 81 70
4 0 25 33 25 24 17 15 10 4 8 12 19 6 14 23 27 12 4 0 1 4 31 7 0 0 1 12 0 6 5 0 6 55 77 28 4 0 24 41 65 71 83 384 205 128 54 34 20 21 46 84 114 127
18 24 26 36 18 9 0 1 7 2 28 1 1 0 3 0 0 0 0 0 0 0 1 41 3 1 12 42 23 4 4 0 0 0 0 4 15 20 33 59 85 44 17 4 0 2 7 2 3 7 20 34 23 37
26 23 23 16 3 5 11 15 15 7 0 0 0 0 0 0 0 0 0 0 0 0 0 0 5 25 29 33 74 69 48 32 35 46 60 33 50 35 33 37 38 50 40 30 33 16 0 8 15 26 27 47 63 21
2 22 17 0 1 16 4 26 30 56 35 0 0 0 0 0 0 0 0 0 0 0 0 0 0 0 9 4 16 34 7 0 0 1 3 27 33 59 60 49 42 48 42 44 48 42 45 34 42 36 28 42 35 45
21 24 10 12 12 1 5 16 16 25 47 43 24 30 14 0 0 0 0 0 0 0 0 0 0 0 0 0 0 0 0 0 0 0 0 0 0 0 1 1 12 33 36 44 44 50 59 50 69 61 70 61 82 67
31 18 20 1 0 2 2 1 0 0 0 19 12 27 10 0 0 0 0 0 0 0 0 0 0 0 0 0 0 0 0 0 0 0 0 0 0 0 0 0 0 0 0 0 10 20 26 18 15 14 16 20 26 36